Marfa, TX

6:14 PM CDT on September 25, 2017 (GMT -0500)
Marfa Municipal

Weather History for KMRF - July, 2013

Change the Weather History Date:

Tuesday, July 16, 2013

  Actual Average Record
Temperature  
Mean Temperature 64 °F -  
Max Temperature 69 °F 85 °F 95 °F (2001)
Min Temperature 60 °F 59 °F 57 °F (1997)
Growing Degree Days 14 (Base 50)    
Moisture  
Dew Point 55 °F    
Average Humidity 76    
Maximum Humidity 88    
Minimum Humidity 60    
Precipitation  
Precipitation 0.06 in - - ()
Sea Level Pressure  
Sea Level Pressure 30.23 in    
Wind  
Wind Speed 10 mph (NNE)    
Max Wind Speed 18 mph    
Max Gust Speed 22 mph    
Visibility 10 miles    
Events      
Averages and records for this station are not official NWS values.
T = Trace of Precipitation, MM = Missing Value Source: NWS Daily Summary

Daily Weather History Graph

Daily Weather History Graph

Search for Another Location

Airport or City:

Trip Planner

Search our weather history database for the weather conditions in past years. The results will help you decide how hot, cold, wet, or windy it might be!

Date:

Astronomy

Jul. 16, 2013 Rise Set
Actual Time 7:05 AM CDT 8:58 PM CDT
Civil Twilight 6:38 AM CDT 9:25 PM CDT
Nautical Twilight 6:05 AM CDT 9:58 PM CDT
Astronomical Twilight 5:30 AM CDT 10:32 PM CDT
Moon 2:52 PM CDT (7/16) 1:24 AM CDT (7/16)
Length of Visible Light 14h 47m
Length of Day
13h 53m
First Quarter, 56% of the Moon is Illuminated
Jul 16
First Quarter
Jul 22
Full
Jul 29
Last Quarter
Aug 6
New
Aug 14
First Quarter

Hourly Weather History & Observations

Time (CDT) Temp. Dew Point Humidity Pressure Visibility Wind Dir Wind Speed Gust Speed Precip Events Conditions
12:15 AM 60.8 °F 53.6 °F 77% 30.21 in 10.0 mi North 9.2 mph - N/A   Scattered Clouds
12:35 AM 60.8 °F 53.6 °F 77% 30.21 in 10.0 mi North 9.2 mph - N/A   Mostly Cloudy
12:55 AM 60.8 °F 53.6 °F 77% 30.22 in 10.0 mi North 9.2 mph - N/A   Overcast
1:15 AM 60.8 °F 53.6 °F 77% 30.21 in 10.0 mi North 8.1 mph - N/A   Overcast
1:35 AM 60.8 °F 53.6 °F 77% 30.20 in 10.0 mi NNE 5.8 mph - N/A   Overcast
1:55 AM 60.8 °F 53.6 °F 77% 30.21 in 10.0 mi NNE 6.9 mph - N/A   Overcast
2:15 AM 60.8 °F 53.6 °F 77% 30.21 in 10.0 mi NNW 5.8 mph - N/A   Overcast
2:35 AM 60.8 °F 53.6 °F 77% 30.21 in 10.0 mi North 12.7 mph - N/A   Overcast
2:55 AM 60.8 °F 53.6 °F 77% 30.20 in 10.0 mi NNE 12.7 mph - N/A   Overcast
3:15 AM 60.8 °F 53.6 °F 77% 30.21 in 10.0 mi North 10.4 mph - N/A   Overcast
3:35 AM 60.8 °F 53.6 °F 77% 30.20 in 10.0 mi NNE 12.7 mph - N/A   Overcast
3:55 AM 60.8 °F 53.6 °F 77% 30.19 in 10.0 mi NNE 9.2 mph - N/A   Overcast
4:15 AM 60.8 °F 53.6 °F 77% 30.19 in 10.0 mi North 5.8 mph - N/A   Overcast
4:35 AM 60.8 °F 53.6 °F 77% 30.19 in 10.0 mi North 6.9 mph - N/A   Overcast
4:55 AM 60.8 °F 53.6 °F 77% 30.18 in 10.0 mi North 8.1 mph - N/A   Overcast
5:15 AM 60.8 °F 53.6 °F 77% 30.18 in 10.0 mi North 9.2 mph - N/A   Overcast
5:35 AM 60.8 °F 53.6 °F 77% 30.18 in 10.0 mi NE 5.8 mph - N/A   Overcast
5:55 AM 60.8 °F 53.6 °F 77% 30.18 in 10.0 mi ENE 6.9 mph - N/A   Overcast
6:15 AM 60.8 °F 53.6 °F 77% 30.18 in 10.0 mi NE 6.9 mph - N/A   Overcast
6:35 AM 60.8 °F 53.6 °F 77% 30.19 in 10.0 mi NE 5.8 mph - N/A   Overcast
6:55 AM 60.8 °F 53.6 °F 77% 30.20 in 10.0 mi NNE 3.5 mph - N/A   Overcast
7:15 AM 60.8 °F 53.6 °F 77% 30.20 in 10.0 mi Calm Calm - N/A   Overcast
7:35 AM 60.8 °F 53.6 °F 77% 30.21 in 10.0 mi ENE 3.5 mph - N/A   Overcast
7:55 AM 60.8 °F 53.6 °F 77% 30.21 in 10.0 mi NNE 6.9 mph - N/A   Overcast
8:15 AM 60.8 °F 55.4 °F 82% 30.21 in 10.0 mi North 6.9 mph - N/A   Overcast
8:35 AM 60.8 °F 55.4 °F 82% 30.22 in 10.0 mi North 6.9 mph - N/A   Overcast
8:55 AM 62.6 °F 55.4 °F 77% 30.23 in 10.0 mi NNE 6.9 mph - N/A   Overcast
9:15 AM 62.6 °F 55.4 °F 77% 30.22 in 10.0 mi NNE 5.8 mph - N/A   Mostly Cloudy
9:35 AM 64.4 °F 55.4 °F 73% 30.23 in 10.0 mi NNE 9.2 mph - N/A   Partly Cloudy
9:55 AM 64.4 °F 55.4 °F 73% 30.23 in 10.0 mi NE 10.4 mph - N/A   Partly Cloudy
10:15 AM 66.2 °F 55.4 °F 68% 30.23 in 10.0 mi NE 15.0 mph 19.6 mph N/A   Partly Cloudy
10:35 AM 66.2 °F 55.4 °F 68% 30.23 in 10.0 mi ENE 18.4 mph - N/A   Scattered Clouds
10:55 AM 66.2 °F 55.4 °F 68% 30.24 in 10.0 mi ENE 15.0 mph - N/A   Mostly Cloudy
11:15 AM 66.2 °F 55.4 °F 68% 30.24 in 10.0 mi ENE 16.1 mph - N/A   Mostly Cloudy
11:35 AM 69.8 °F 55.4 °F 60% 30.24 in 10.0 mi ENE 18.4 mph - N/A   Partly Cloudy
11:55 AM 69.8 °F 57.2 °F 64% 30.25 in 10.0 mi NE 13.8 mph 21.9 mph N/A   Mostly Cloudy
12:15 PM 66.2 °F 55.4 °F 68% 30.25 in 10.0 mi NE 15.0 mph 19.6 mph N/A   Overcast
12:35 PM 66.2 °F 55.4 °F 68% 30.26 in 10.0 mi NE 15.0 mph - N/A   Overcast
12:55 PM 66.2 °F 55.4 °F 68% 30.26 in 10.0 mi NE 13.8 mph - N/A   Overcast
1:15 PM 66.2 °F 55.4 °F 68% 30.26 in 6.0 mi ENE 17.3 mph 21.9 mph N/A   Overcast
1:35 PM 66.2 °F 55.4 °F 68% 30.25 in 9.0 mi NE 15.0 mph - N/A   Overcast
1:55 PM 66.2 °F 55.4 °F 68% 30.26 in 10.0 mi NE 10.4 mph - N/A   Overcast
2:15 PM 64.4 °F 55.4 °F 73% 30.25 in 10.0 mi NNE 15.0 mph - N/A   Overcast
2:35 PM 66.2 °F 55.4 °F 68% 30.25 in 9.0 mi NE 15.0 mph 20.7 mph N/A   Overcast
2:55 PM 66.2 °F 55.4 °F 68% 30.25 in 10.0 mi NNE 11.5 mph - N/A   Overcast
3:15 PM 68.0 °F 55.4 °F 64% 30.24 in 10.0 mi NNE 15.0 mph 20.7 mph N/A   Mostly Cloudy
3:35 PM 66.2 °F 55.4 °F 68% 30.24 in 10.0 mi NE 15.0 mph 19.6 mph N/A   Overcast
3:55 PM 64.4 °F 55.4 °F 73% 30.24 in 10.0 mi NE 15.0 mph - N/A   Overcast
4:15 PM 64.4 °F 55.4 °F 73% 30.24 in 10.0 mi ENE 13.8 mph - N/A   Overcast
4:35 PM 62.6 °F 57.2 °F 82% 30.24 in 9.0 mi ENE 16.1 mph 20.7 mph N/A   Overcast
4:55 PM 62.6 °F 57.2 °F 82% 30.24 in 10.0 mi NE 11.5 mph - N/A   Overcast
5:15 PM 62.6 °F 57.2 °F 82% 30.24 in 10.0 mi NE 11.5 mph - 0.03 in   Overcast
5:35 PM 62.6 °F 59.0 °F 88% 30.24 in 10.0 mi NNE 12.7 mph - 0.05 in   Overcast
5:55 PM 62.6 °F 57.2 °F 82% 30.23 in 10.0 mi NE 12.7 mph - 0.06 in   Mostly Cloudy
6:15 PM 62.6 °F 57.2 °F 82% 30.22 in 10.0 mi NNE 10.4 mph - N/A   Clear
6:35 PM 62.6 °F 57.2 °F 82% 30.23 in 10.0 mi NE 10.4 mph - N/A   Clear
6:55 PM 62.6 °F 57.2 °F 82% 30.22 in 10.0 mi NE 11.5 mph - N/A   Scattered Clouds
7:15 PM 62.6 °F 57.2 °F 82% 30.22 in 10.0 mi NE 12.7 mph - N/A   Mostly Cloudy
7:35 PM 62.6 °F 57.2 °F 82% 30.23 in 10.0 mi NNE 9.2 mph - N/A   Clear
7:55 PM 62.6 °F 59.0 °F 88% 30.24 in 10.0 mi NNE 9.2 mph - N/A   Scattered Clouds
8:15 PM 62.6 °F 57.2 °F 82% 30.24 in 10.0 mi NNE 12.7 mph - N/A   Overcast
8:35 PM 62.6 °F 57.2 °F 82% 30.25 in 10.0 mi NNE 11.5 mph - N/A   Overcast
8:55 PM 62.6 °F 57.2 °F 82% 30.25 in 10.0 mi NNE 10.4 mph - N/A   Overcast
9:15 PM 62.6 °F 57.2 °F 82% 30.25 in 10.0 mi NNE 11.5 mph - N/A   Overcast
9:35 PM 62.6 °F 55.4 °F 77% 30.26 in 10.0 mi NNE 11.5 mph - N/A   Overcast
9:55 PM 62.6 °F 55.4 °F 77% 30.26 in 10.0 mi NNE 9.2 mph - N/A   Overcast
10:15 PM 60.8 °F 55.4 °F 82% 30.27 in 10.0 mi North 10.4 mph - N/A   Overcast
10:35 PM 60.8 °F 55.4 °F 82% 30.28 in 10.0 mi NE 10.4 mph - N/A   Overcast
10:55 PM 60.8 °F 55.4 °F 82% 30.28 in 10.0 mi NNE 9.2 mph - N/A   Overcast
11:15 PM 60.8 °F 55.4 °F 82% 30.29 in 10.0 mi NE 8.1 mph - N/A   Overcast
11:35 PM 60.8 °F 57.2 °F 88% 30.29 in 10.0 mi NNE 8.1 mph - N/A   Overcast
11:55 PM 60.8 °F 57.2 °F 88% 30.29 in 10.0 mi North 8.1 mph - N/A   Overcast